Wind_Speed
16 16 17 17 17 17 16 14 13 14 13 11 10 8 6 6 5 4 4 4 5 6 7 6 7 6 5 4 4 5 4 4 4 3 3 3 3 3 3 4 4 4 4
15 16 16 17 18 18 17 15 14 13 12 12 11 9 8 6 5 5 4 4 5 5 6 7 7 6 6 6 5 6 6 5 5 4 4 4 4 4 4 5 5 5 5
15 16 16 17 18 18 17 15 14 13 12 11 11 10 8 7 6 6 5 6 6 6 6 6 6 6 6 6 7 7 7 6 6 6 6 5 5 5 5 6 6 6 6
15 15 16 17 18 18 17 15 14 13 12 11 11 10 9 8 7 6 7 7 7 7 7 7 7 7 7 7 7 7 7 7 7 7 7 7 7 7 7 8 7 8 9
15 15 15 17 17 17 16 15 15 13 12 12 11 10 9 9 8 7 7 7 7 7 7 7 7 8 8 8 8 8 9 9 9 8 9 9 8 8 9 9 9 10 10
14 14 15 17 17 17 15 15 15 14 13 12 11 10 9 8 8 7 6 7 7 7 7 8 8 8 9 9 9 10 10 11 11 11 10 11 11 11 11 11 11 11 12
14 13 14 16 17 17 15 14 14 13 13 13 11 11 10 9 8 7 6 7 6 6 7 7 8 7 8 9 10 11 12 12 12 13 13 13 13 14 14 13 14 14 14
13 13 14 15 16 16 15 15 14 13 13 13 12 11 10 9 9 8 7 7 6 7 7 7 8 9 10 10 11 12 13 14 14 15 15 16 16 16 16 15 15 16 16
13 13 13 14 15 15 16 16 15 14 14 13 12 11 11 10 9 8 8 7 7 7 8 9 9 10 12 12 12 13 13 14 16 16 17 18 18 18 18 18 19 19 19
13 13 13 13 14 16 16 16 15 14 14 13 12 12 11 11 10 10 10 9 8 8 10 10 11 11 12 13 13 14 14 15 15 16 17 18 19 19 20 21 21 22 23
13 14 14 14 15 16 16 15 15 15 15 14 13 12 12 12 11 10 10 10 10 10 10 10 11 12 12 13 14 14 15 16 16 17 18 19 20 21 22 22 23 24 25
13 15 15 15 15 16 17 16 16 16 16 15 14 14 13 13 13 12 12 11 11 11 12 12 12 12 13 14 15 16 16 17 17 17 18 19 21 22 23 23 24 25 26
14 15 15 16 16 16 17 17 16 16 16 15 15 15 14 14 14 14 13 13 13 13 13 14 14 14 14 15 16 17 17 18 18 19 20 21 22 23 24 24 25 25 26
16 15 15 16 16 17 16 17 17 17 17 17 16 16 15 15 15 14 14 14 14 14 14 15 15 15 15 16 16 17 18 19 20 21 22 23 24 24 24 25 26 27 28
17 16 16 16 17 17 17 17 18 18 18 18 18 17 17 16 16 16 16 16 15 15 16 16 16 16 16 17 17 18 19 20 22 23 24 25 25 26 26 26 28 29 29
17 17 17 17 18 17 17 18 18 19 19 19 19 18 17 16 17 17 17 17 17 17 17 18 17 18 18 19 19 20 21 22 23 24 25 25 26 27 27 27 28 29 29
19 19 18 19 19 17 18 18 19 20 20 20 20 19 19 19 19 19 19 18 18 19 19 19 19 20 20 21 21 21 22 23 24 25 26 27 27 28 28 29 29 30 30
21 20 20 20 19 19 20 20 20 20 21 21 21 21 21 20 20 21 21 20 20 20 20 21 21 21 22 22 22 23 24 25 26 26 27 28 28 28 29 30 31 31 31
22 22 21 21 21 21 21 22 22 21 22 22 22 23 23 22 22 22 22 21 20 21 21 22 22 23 23 24 24 25 25 26 26 27 28 28 28 29 30 31 31 32 32
23 23 23 23 23 23 23 23 23 23 23 23 24 24 24 24 24 23 23 22 22 22 22 23 23 24 24 25 26 27 27 27 27 28 28 29 29 30 31 31 32 32 32
24 24 24 24 24 24 24 24 24 24 25 25 25 25 25 25 25 25 24 23 23 23 24 24 25 25 26 26 26 27 27 28 29 29 29 29 30 31 31 31 31 31 31
26 26 25 25 25 25 25 25 25 26 26 26 26 26 26 27 26 26 25 25 25 25 26 25 25 26 26 26 27 27 28 29 29 29 29 29 30 30 30 30 30 31 32
27 27 27 27 27 26 26 26 26 27 27 27 27 27 27 28 26 26 26 26 26 26 26 26 26 26 26 27 27 28 28 29 29 29 28 28 29 30 31 31 31 32 32
28 28 28 28 28 27 27 28 28 29 29 28 28 28 29 28 27 27 27 27 27 27 26 26 26 27 27 27 28 28 28 28 29 28 28 29 30 31 32 32 33 33 33
29 29 29 29 29 29 29 29 30 30 30 29 29 29 29 29 28 28 28 28 28 27 27 27 27 27 28 28 28 28 28 28 28 29 29 30 30 31 31 32 33 33 33
30 30 30 30 30 30 31 31 31 30 30 30 30 29 29 29 29 29 28 28 28 28 28 28 28 28 28 28 28 28 29 29 29 30 30 31 31 32 32 32 32 32 32
Wind_Direction
356 355 356 356 357 356 355 355 354 353 351 350 351 348 335 321 320 313 298 276 269 258 254 255 255 252 248 249 249 249 255 261 258 262 269 285 289 284 293 296 301 299 297
352 353 352 354 354 353 353 352 351 349 349 350 349 349 345 334 323 313 299 285 277 268 258 253 253 250 251 251 252 252 254 260 263 268 273 277 278 280 286 292 294 295 299
347 350 351 351 351 351 351 348 347 346 345 345 344 340 339 333 322 305 295 281 271 267 259 253 247 250 252 256 257 258 257 262 265 267 268 273 275 284 286 288 291 294 295
343 345 346 348 349 348 348 348 346 345 343 339 337 337 334 329 324 316 295 286 275 270 266 253 252 254 257 257 258 260 259 259 265 268 272 277 282 285 289 291 286 285 287
338 341 343 344 346 346 346 347 346 343 340 339 337 337 336 331 330 321 301 294 283 271 262 256 256 256 256 257 259 261 260 260 265 269 273 276 279 282 285 288 286 285 289
330 336 339 342 344 345 344 343 346 346 342 340 340 340 338 335 334 332 319 309 293 278 265 260 265 267 262 261 264 265 263 263 264 268 274 279 283 283 282 283 284 284 286
322 327 334 338 340 343 343 342 344 344 343 341 342 340 338 335 335 336 327 318 305 281 267 264 268 271 268 267 271 271 270 269 267 268 274 277 281 282 284 284 283 284 284
318 322 329 334 337 341 342 340 339 339 339 339 340 340 338 338 337 332 327 323 313 299 290 280 279 278 278 276 278 281 278 272 271 273 276 278 281 282 283 284 287 287 285
315 322 327 330 334 339 339 340 341 339 338 338 338 339 339 337 334 331 327 325 317 305 300 294 285 283 283 280 282 285 284 281 275 274 277 279 281 281 283 285 286 286 287
309 319 325 327 330 334 335 336 337 338 339 339 338 338 337 336 334 331 322 321 318 311 306 297 290 287 288 286 284 286 288 285 282 279 279 282 283 282 284 286 287 288 287
301 309 316 322 324 328 331 331 333 334 334 332 330 330 330 329 329 327 326 323 320 319 315 306 298 293 292 290 289 287 287 286 284 283 283 283 285 286 285 286 286 288 289
298 302 310 316 320 323 326 327 328 330 330 327 326 323 323 324 322 321 317 318 317 314 309 307 301 299 293 291 291 290 289 289 287 287 288 288 289 288 287 287 287 288 288
297 298 304 311 317 322 324 325 327 328 328 326 323 321 321 322 320 319 315 311 311 310 309 305 300 300 297 293 292 293 293 293 290 288 288 289 290 290 288 288 289 290 289
291 293 301 306 312 316 321 325 326 327 328 327 324 320 319 319 319 317 315 310 309 306 306 305 304 302 299 296 295 295 294 294 292 290 289 289 292 293 292 292 290 289 289
287 289 293 300 307 310 314 319 321 324 325 325 324 322 318 318 317 314 312 313 310 306 305 304 304 303 300 298 299 299 297 295 294 294 294 295 294 294 293 293 293 293 291
283 286 290 296 301 304 308 312 316 319 322 323 323 322 320 317 317 316 312 311 308 303 302 302 302 302 302 301 301 300 300 298 297 296 296 297 297 295 293 294 293 294 294
277 282 287 292 297 300 305 308 311 316 319 319 320 320 318 316 317 316 313 310 309 306 303 302 302 304 304 303 303 302 301 300 298 298 298 297 296 297 296 296 295 295 294
273 278 283 289 293 298 301 304 307 311 314 316 316 318 316 315 314 313 313 308 305 306 305 303 302 301 301 301 302 302 302 301 303 303 302 301 299 298 297 296 296 296 297
271 274 278 284 288 292 296 300 302 306 310 313 314 315 314 313 312 310 310 309 305 303 303 303 303 302 301 300 301 302 302 304 304 304 303 302 301 300 299 298 298 297 296
270 272 275 280 284 289 293 296 299 302 306 308 310 311 312 312 310 311 311 311 307 305 304 304 303 303 303 302 301 302 303 304 305 305 304 304 303 302 301 300 299 299 298
269 271 273 277 281 286 290 293 296 299 303 305 306 307 310 311 310 309 308 308 308 306 304 304 303 302 302 303 303 304 305 306 305 305 305 305 305 304 303 302 302 301 300
269 270 272 275 279 284 288 291 294 297 301 304 305 306 308 309 309 308 305 305 305 305 304 304 304 304 304 304 305 305 305 306 307 306 306 306 306 306 305 304 303 302 300
267 268 270 273 276 280 283 287 291 294 299 302 303 304 306 308 307 306 305 304 303 304 303 303 304 305 305 305 306 306 306 307 307 307 306 307 307 306 306 306 305 304 303
264 266 269 271 274 277 280 284 288 291 294 297 299 302 304 305 304 303 303 302 303 303 302 302 303 305 305 306 307 307 307 307 307 307 306 306 306 305 306 306 305 305 304
263 266 268 270 273 275 279 282 285 288 290 293 296 299 301 302 301 301 301 301 301 302 302 303 304 304 305 306 307 307 307 307 307 306 306 306 307 308 308 307 306 305 303
263 266 267 269 271 274 278 280 281 285 289 292 294 296 297 299 300 300 300 300 300 300 301 302 303 303 304 305 305 306 306 306 306 306 307 307 308 308 308 307 307 306 306
Height
5926 5924 5922 5920 5917 5915 5913 5911 5909 5907 5905 5904 5902 5901 5901 5900 5900 5900 5900 5900 5900 5901 5901 5902 5903 5903 5904 5905 5905 5906 5906 5907 5907 5907 5907 5907 5906 5907 5907 5907 5906 5906 5906
5926 5924 5922 5920 5918 5915 5913 5911 5909 5907 5906 5904 5903 5901 5900 5900 5899 5899 5899 5899 5899 5900 5901 5901 5902 5902 5903 5904 5904 5905 5905 5906 5906 5906 5906 5906 5907 5906 5906 5906 5905 5905 5904
5927 5924 5922 5920 5918 5915 5913 5911 5909 5907 5906 5904 5903 5901 5900 5899 5899 5899 5899 5899 5899 5899 5899 5900 5901 5901 5902 5902 5903 5903 5904 5905 5905 5905 5906 5905 5905 5905 5905 5905 5904 5904 5904
5926 5924 5922 5920 5918 5915 5913 5911 5909 5907 5905 5904 5902 5901 5900 5898 5898 5897 5897 5897 5897 5898 5898 5899 5900 5900 5901 5901 5901 5902 5903 5903 5904 5904 5904 5904 5903 5904 5903 5903 5902 5902 5902
5926 5924 5922 5920 5918 5915 5913 5911 5909 5907 5905 5903 5902 5900 5899 5898 5897 5896 5895 5896 5896 5896 5897 5898 5898 5898 5899 5899 5900 5900 5901 5901 5902 5902 5902 5902 5902 5902 5902 5901 5901 5900 5900
5925 5924 5922 5920 5918 5915 5913 5911 5909 5907 5904 5903 5901 5900 5898 5897 5896 5895 5895 5895 5894 5895 5895 5896 5897 5897 5897 5897 5898 5898 5899 5899 5900 5900 5900 5900 5900 5899 5899 5899 5898 5898 5897
5925 5923 5921 5920 5918 5915 5913 5911 5909 5907 5905 5903 5901 5900 5898 5897 5896 5894 5894 5894 5894 5894 5894 5895 5895 5895 5895 5895 5896 5896 5896 5897 5897 5897 5897 5897 5897 5897 5896 5896 5895 5895 5894
5924 5922 5921 5919 5917 5915 5913 5911 5909 5907 5905 5903 5901 5900 5898 5897 5895 5894 5893 5893 5893 5893 5893 5893 5893 5893 5893 5893 5894 5894 5894 5894 5894 5894 5894 5894 5894 5893 5893 5892 5892 5891 5891
5922 5921 5920 5918 5917 5915 5913 5911 5909 5907 5905 5903 5901 5900 5898 5896 5895 5894 5893 5892 5892 5892 5891 5891 5891 5891 5891 5891 5891 5891 5891 5890 5890 5890 5891 5890 5890 5890 5889 5888 5888 5887 5886
5920 5919 5918 5917 5916 5914 5912 5910 5908 5906 5905 5903 5901 5899 5898 5896 5895 5893 5892 5891 5891 5890 5890 5889 5889 5889 5889 5888 5888 5888 5888 5887 5887 5887 5887 5886 5886 5885 5885 5884 5883 5882 5881
5919 5918 5916 5915 5914 5913 5911 5909 5908 5906 5904 5902 5900 5899 5897 5896 5894 5893 5892 5890 5889 5889 5888 5887 5887 5886 5886 5886 5886 5885 5885 5884 5883 5883 5882 5882 5881 5881 5880 5879 5878 5877 5875
5916 5915 5915 5913 5912 5911 5910 5908 5906 5905 5903 5901 5899 5898 5896 5895 5893 5892 5891 5890 5888 5887 5887 5886 5885 5884 5884 5883 5883 5882 5881 5880 5880 5879 5878 5878 5877 5876 5874 5873 5872 5871 5870
5914 5914 5913 5912 5910 5910 5908 5907 5905 5903 5901 5900 5898 5896 5895 5893 5892 5890 5889 5888 5887 5886 5885 5884 5883 5882 5881 5880 5879 5878 5878 5877 5876 5875 5874 5873 5872 5870 5869 5868 5866 5865 5863
5913 5912 5910 5910 5909 5908 5907 5905 5903 5902 5900 5898 5896 5895 5893 5891 5890 5888 5887 5885 5884 5883 5882 5881 5880 5879 5878 5876 5875 5874 5874 5872 5871 5870 5869 5867 5866 5865 5863 5862 5860 5859 5857
5911 5910 5909 5908 5907 5906 5905 5903 5902 5900 5898 5896 5894 5893 5891 5889 5887 5886 5884 5883 5881 5880 5879 5878 5877 5876 5874 5873 5871 5870 5869 5868 5866 5865 5864 5862 5861 5859 5857 5855 5854 5852 5850
5908 5907 5906 5906 5904 5903 5902 5901 5900 5898 5896 5894 5892 5890 5888 5886 5885 5883 5881 5880 5878 5877 5876 5875 5873 5872 5870 5869 5867 5866 5864 5863 5861 5860 5858 5856 5854 5853 5851 5849 5847 5845 5843
5904 5904 5903 5902 5901 5900 5899 5899 5897 5895 5893 5891 5889 5887 5885 5883 5882 5880 5878 5876 5875 5873 5872 5871 5869 5868 5866 5864 5863 5861 5859 5858 5856 5854 5852 5850 5848 5846 5844 5841 5839 5837 5835
5900 5900 5900 5899 5898 5897 5896 5895 5894 5893 5891 5889 5887 5884 5882 5880 5879 5876 5875 5873 5871 5870 5868 5866 5865 5864 5862 5860 5858 5856 5854 5852 5850 5848 5846 5843 5841 5839 5837 5834 5832 5830 5827
5896 5896 5896 5896 5895 5894 5893 5892 5891 5889 5887 5885 5883 5881 5879 5877 5875 5873 5871 5868 5867 5865 5864 5862 5860 5859 5857 5855 5853 5851 5849 5847 5844 5842 5839 5837 5834 5832 5829 5827 5824 5822 5819
5891 5892 5892 5891 5891 5890 5889 5888 5887 5885 5883 5881 5879 5877 5875 5873 5870 5868 5866 5864 5862 5861 5859 5857 5856 5854 5851 5849 5847 5845 5843 5841 5838 5835 5833 5830 5827 5824 5821 5819 5816 5814 5811
5886 5887 5887 5887 5886 5885 5884 5883 5882 5881 5879 5877 5875 5873 5870 5868 5866 5864 5862 5860 5858 5856 5854 5853 5850 5848 5846 5844 5842 5839 5837 5834 5832 5829 5826 5823 5820 5817 5814 5811 5808 5805 5803
5881 5881 5881 5881 5881 5880 5879 5878 5877 5876 5874 5872 5870 5868 5866 5863 5861 5859 5856 5855 5853 5851 5849 5847 5845 5843 5840 5838 5835 5833 5830 5828 5825 5822 5819 5816 5813 5810 5807 5803 5800 5797 5794
5875 5875 5875 5875 5875 5874 5874 5873 5872 5870 5869 5867 5865 5863 5861 5858 5856 5853 5851 5849 5847 5845 5843 5841 5839 5837 5834 5832 5829 5827 5824 5821 5818 5815 5812 5809 5806 5803 5799 5796 5793 5789 5786
5868 5869 5869 5869 5869 5868 5868 5867 5866 5865 5863 5861 5859 5857 5855 5853 5850 5848 5846 5843 5841 5839 5837 5835 5833 5831 5828 5826 5823 5820 5817 5814 5811 5808 5805 5802 5799 5795 5792 5788 5784 5781 5777
5862 5862 5862 5862 5862 5862 5861 5860 5859 5858 5857 5855 5853 5851 5849 5847 5844 5842 5840 5837 5835 5833 5831 5829 5827 5824 5822 5819 5816 5813 5811 5807 5804 5801 5798 5795 5791 5788 5784 5780 5776 5773 5769
5854 5855 5855 5855 5855 5855 5854 5853 5852 5851 5850 5848 5847 5845 5843 5840 5838 5836 5834 5831 5829 5827 5824 5822 5820 5817 5815 5812 5809 5806 5803 5800 5797 5794 5790 5787 5784 5780 5776 5772 5768 5764 5761